Maynard, Arkansas
Current Conditions -  °F | °C
As of 10:15 PM on Tuesday 25 Nov 2014 (Local Time) from K4M9 Reporting Station
Clear Clear  
Wind Chill: 32°   Ceiling: Unl
Heat Index: 32°   Visibility: 10mi
Dew Point: 28°   Wind: 3mph
Humidity: 87%   Direction: 110°ESE
Pressure: 30.19"   Gusts: NA
Location:  36.42°N, 90.9°W
Report Text: K4M9 260415Z AUTO 11003KT 10SM CLR 00/M02 A3019 RMK AO2
Loading
Personal Weather Stations






























Interactive Weather Map New forecast layout! Learn more

10-Day Weather Forecast

Advertisements
Track Severe Weather on mobile